User: anonymous   Login
Location: Unspecified
(0.0000°N, 0.0000°E)
Time: 18:45:03
(UTC+00:00)
Language:

BUGSAT 1 - Orbit

View from above orbital plane
View from above orbital plane
View from above satellite
View from above satellite

Ground track
Ground track

The orbit data is extracted from the following two-line orbital elements,

1 40014U 14033E   18351.54626564  .00000436  00000-0  45063-4 0  9991
2 40014  97.9950 290.2431 0031043 310.2519  49.5922 14.95170589245138
Epoch (UTC): 17 December 2018 13:06:37
Eccentricity: 0.0031043
inclination: 97.9950°
perigee height: 560 km
apogee height: 603 km
right ascension of ascending node: 290.2431°
argument of perigee: 310.2519°
revolutions per day: 14.95170589
mean anomaly at epoch: 49.5922°
orbit number at epoch: 24513

The dashed part of the orbit path shows where the satellite is in the earth's shadow,  

DLR